Weather History for Chambery, France

Change the Weather History Date:

Wednesday, October 16, 2013

  Actual Average Record
Temperature  
Mean Temperature 58 °F -  
Max Temperature 62 °F 54 °F 77 °F (2002)
Min Temperature 53 °F 40 °F 32 °F (2012)
Degree Days  
Heating Degree Days 8    
Growing Degree Days 8 (Base 50)    
Moisture  
Dew Point 55 °F    
Average Humidity 91    
Maximum Humidity 100    
Minimum Humidity 82    
Precipitation  
Precipitation 0.00 in - - ()
Sea Level Pressure  
Sea Level Pressure 30.00 in    
Wind  
Wind Speed 4 mph ()    
Max Wind Speed 10 mph    
Max Gust Speed -    
Visibility 5.5 miles    
Events Rain    
Averages and records for this station are not official NWS values.
T = Trace of Precipitation, MM = Missing Value Source: Averaged Metar Reports

Daily Weather History Graph

Daily Weather History Graph

Search for Another Location

Airport:

Trip Planner

Search our weather history database for the weather conditions in past years. The results will help you decide how hot, cold, wet, or windy it might be!

Date:

Astronomy

Oct. 16, 2013 Rise Set
Actual Time 7:54 AM CEST 6:49 PM CEST
Civil Twilight 7:24 AM CEST 7:18 PM CEST
Nautical Twilight 6:49 AM CEST 7:53 PM CEST
Astronomical Twilight 6:15 AM CEST 8:27 PM CEST
Moon 5:25 PM CEST (10/16) 4:57 AM CEST (10/16)
Length of Visible Light 11h 54m
Length of Day
10h 54m
Waxing Gibbous, 92% of the Moon is Illuminated
Oct 16
Waxing Gibbous
Oct 19
Full
Oct 27
Last Quarter
Nov 3
New
Nov 10
First Quarter

Hourly Weather History & Observations

Time (CEST) Temp. Dew Point Humidity Pressure Visibility Wind Dir Wind Speed Gust Speed Precip Events Conditions
12:00 AM 53.6 °F 51.8 °F 94% 29.95 in - SSW 10.4 mph - N/A Rain Light Rain
12:30 AM 53.6 °F 51.8 °F 94% 29.92 in - SSW 9.2 mph - N/A Rain Rain
1:00 AM 53.6 °F 51.8 °F 94% 29.92 in 5.0 mi South 9.2 mph - N/A Rain Light Rain
1:30 AM 53.6 °F 53.6 °F 100% 29.92 in 6.2 mi West 3.5 mph - N/A Rain Light Rain
2:00 AM 53.6 °F 51.8 °F 94% 29.92 in - WSW 3.5 mph - N/A Rain Rain
2:30 AM 53.6 °F 53.6 °F 100% 29.92 in 2.2 mi Variable 2.3 mph - N/A Rain Light Rain
3:00 AM 53.6 °F 53.6 °F 100% 29.92 in 1.6 mi Variable 3.5 mph - N/A Rain Light Rain
3:30 AM 53.6 °F 53.6 °F 100% 29.92 in 4.3 mi South 1.2 mph - N/A Rain Light Rain
4:00 AM 53.6 °F 53.6 °F 100% 29.95 in - Variable 2.3 mph - N/A   Light Drizzle
4:30 AM 53.6 °F 53.6 °F 100% 29.95 in 3.1 mi Variable 2.3 mph - N/A Rain Light Rain
5:00 AM 53.6 °F 53.6 °F 100% 29.95 in 3.7 mi SSE 3.5 mph - N/A Rain Light Rain
5:30 AM 53.6 °F 53.6 °F 100% 29.95 in 6.2 mi South 4.6 mph - N/A Rain Light Rain
6:00 AM 53.6 °F 53.6 °F 100% 29.95 in 5.0 mi SSW 3.5 mph - N/A   Overcast
6:30 AM 53.6 °F 53.6 °F 100% 29.98 in 5.0 mi Variable 2.3 mph - N/A   Mostly Cloudy
7:00 AM 53.6 °F 51.8 °F 94% 29.98 in 6.2 mi South 2.3 mph - N/A   Mostly Cloudy
8:00 AM 53.6 °F 51.8 °F 94% 29.98 in 6.2 mi East 1.2 mph - N/A   Mostly Cloudy
9:00 AM 53.6 °F 53.6 °F 100% 30.01 in 5.6 mi Variable 2.3 mph - N/A   Mostly Cloudy
9:30 AM 55.4 °F 53.6 °F 94% 30.01 in 5.6 mi Calm Calm - N/A   Mostly Cloudy
10:04 AM 55.4 °F 53.6 °F 94% 30.04 in 5.6 mi Variable 1.2 mph - N/A   Mostly Cloudy
10:30 AM 57.2 °F 55.4 °F 94% 30.04 in 5.6 mi Variable 2.3 mph - N/A   Mostly Cloudy
11:00 AM 57.2 °F 55.4 °F 94% 30.04 in 5.0 mi Variable 3.5 mph - N/A   Mostly Cloudy
11:30 AM 59.0 °F 55.4 °F 88% 30.04 in 5.0 mi Variable 3.5 mph - N/A   Mostly Cloudy
12:00 PM 60.8 °F 55.4 °F 82% 30.04 in 5.6 mi Variable 3.5 mph - N/A   Mostly Cloudy
12:30 PM 60.8 °F 55.4 °F 82% 30.04 in 6.2 mi Variable 2.3 mph - N/A   Mostly Cloudy
1:00 PM 60.8 °F 57.2 °F 88% 30.04 in 6.2 mi NE 3.5 mph - N/A   Mostly Cloudy
1:30 PM 62.6 °F 57.2 °F 82% 30.01 in 6.2 mi Variable 2.3 mph - N/A   Mostly Cloudy
2:00 PM 62.6 °F 57.2 °F 82% 30.04 in 6.2 mi NNE 4.6 mph - N/A   Mostly Cloudy
2:30 PM 62.6 °F 57.2 °F 82% 30.04 in 6.2 mi NNW 4.6 mph - N/A   Mostly Cloudy
3:00 PM 62.6 °F 57.2 °F 82% 30.01 in 6.2 mi Variable 3.5 mph - N/A   Overcast
3:30 PM 62.6 °F 57.2 °F 82% 30.01 in 6.2 mi North 4.6 mph - N/A   Overcast
4:00 PM 62.6 °F 57.2 °F 82% 30.01 in 6.2 mi North 4.6 mph - N/A   Overcast
5:00 PM 62.6 °F 57.2 °F 82% 30.01 in 6.2 mi NNW 3.5 mph - N/A   Overcast
5:30 PM 62.6 °F 57.2 °F 82% 30.04 in 6.2 mi Variable 2.3 mph - N/A   Overcast
6:00 PM 60.8 °F 57.2 °F 88% 30.04 in 6.2 mi ENE 1.2 mph - N/A   Overcast
6:30 PM 60.8 °F 57.2 °F 88% 30.04 in 6.2 mi SE 2.3 mph - N/A Rain Light Rain
7:00 PM 60.8 °F 57.2 °F 88% 30.04 in 1.7 mi Variable 3.5 mph - N/A   Mostly Cloudy
7:30 PM 59.0 °F 57.2 °F 94% 30.04 in 6.2 mi Variable 3.5 mph - N/A   Overcast
8:00 PM 59.0 °F 55.4 °F 88% 30.04 in 6.2 mi Variable 2.3 mph - N/A   Overcast
8:30 PM 59.0 °F 55.4 °F 88% 30.04 in 6.2 mi ESE 1.2 mph - N/A Rain Light Rain
9:00 PM 57.2 °F 55.4 °F 94% 30.04 in 6.2 mi SSW 4.6 mph - N/A   Overcast
9:30 PM 59.0 °F 55.4 °F 88% 30.01 in 6.2 mi SSW 5.8 mph - N/A   Overcast
10:00 PM 59.0 °F 55.4 °F 88% 30.04 in 6.2 mi South 8.1 mph - N/A   Overcast
10:30 PM 59.0 °F 55.4 °F 88% 30.06 in 6.2 mi West 4.6 mph - N/A Rain Light Rain
11:00 PM 59.0 °F 55.4 °F 88% 30.06 in 6.2 mi WSW 3.5 mph - N/A   Overcast
11:30 PM 59.0 °F 55.4 °F 88% 30.06 in 6.2 mi SW 9.2 mph - N/A Rain Light Rain